When you browse on this site, cookies collect data to enhance your experience and personalize the content and advertising you see.
Visit our Privacy Policy to learn more. By continuing to use the site, you agree to this use of cookies and data.

Meteo pe oră la Dziecielin

Astăzi, 21 Septembrie, Luni

Timp Temperatura Precipitaţii Vânt Presiune Umiditate
00:00 +13°C° 0 mm 2 m/s 759 mmHg 69%
01:00 +12°C° 0 mm 2 m/s 759 mmHg 70%
02:00 +12°C° 0 mm 2 m/s 759 mmHg 72%
03:00 +12°C° 0 mm 2 m/s 759 mmHg 73%
04:00 +10°C° 0 mm 2 m/s 759 mmHg 75%
05:00 +12°C° 0 mm 2 m/s 759 mmHg 74%
06:00 +12°C° 0 mm 2 m/s 759 mmHg 73%
07:00 +13°C° 0 mm 2 m/s 759 mmHg 73%
08:00 +15°C° 0 mm 2 m/s 759 mmHg 66%
09:00 +17°C° 0 mm 2 m/s 759 mmHg 59%
10:00 +19°C° 0 mm 2 m/s 759 mmHg 53%
11:00 +21°C° 0 mm 2 m/s 759 mmHg 49%
12:00 +23°C° 0 mm 2 m/s 759 mmHg 45%
13:00 +25°C° 0 mm 2 m/s 758 mmHg 40%
14:00 +25°C° 0 mm 2 m/s 758 mmHg 41%
15:00 +25°C° 0 mm 2 m/s 758 mmHg 41%
16:00 +25°C° 0 mm 2 m/s 757 mmHg 42%
17:00 +23°C° 0 mm 2 m/s 757 mmHg 48%
18:00 +21°C° 0 mm 1 m/s 757 mmHg 54%
19:00 +19°C° 0 mm 1 m/s 757 mmHg 60%
20:00 +17°C° 0 mm 2 m/s 757 mmHg 62%
21:00 +17°C° 0 mm 2 m/s 757 mmHg 64%
22:00 +16°C° 0 mm 2 m/s 757 mmHg 66%
23:00 +16°C° 0 mm 2 m/s 757 mmHg 65%

Mâine, 22 Septembrie, Marţi

Timp Temperatura Precipitaţii Vânt Presiune Umiditate
00:00 +16°C° 0 mm 2 m/s 756 mmHg 65%
01:00 +15°C° 0 mm 2 m/s 756 mmHg 65%
02:00 +15°C° 0 mm 2 m/s 756 mmHg 66%
03:00 +15°C° 0 mm 2 m/s 755 mmHg 67%
04:00 +14°C° 0 mm 2 m/s 755 mmHg 68%
05:00 +15°C° 0 mm 2 m/s 755 mmHg 69%
06:00 +15°C° 0 mm 2 m/s 755 mmHg 69%
07:00 +15°C° 0 mm 2 m/s 755 mmHg 69%
08:00 +18°C° 0 mm 2 m/s 755 mmHg 60%
09:00 +20°C° 0 mm 3 m/s 754 mmHg 52%
10:00 +22°C° 0 mm 3 m/s 754 mmHg 43%
11:00 +24°C° 0 mm 3 m/s 754 mmHg 41%
12:00 +25°C° 0 mm 3 m/s 754 mmHg 39%
13:00 +26°C° 0 mm 3 m/s 753 mmHg 36%
14:00 +26°C° 0 mm 3 m/s 753 mmHg 37%
15:00 +26°C° 0 mm 3 m/s 752 mmHg 39%
16:00 +26°C° 0 mm 2 m/s 752 mmHg 40%
17:00 +24°C° 0 mm 2 m/s 752 mmHg 46%
18:00 +21°C° 0 mm 2 m/s 752 mmHg 51%
19:00 +19°C° 0 mm 2 m/s 752 mmHg 57%
20:00 +19°C° 0 mm 2 m/s 751 mmHg 59%
21:00 +18°C° 0 mm 2 m/s 751 mmHg 62%
22:00 +18°C° 0 mm 2 m/s 751 mmHg 64%
23:00 +18°C° 0 mm 2 m/s 751 mmHg 67%

Poimâine, 23 Septembrie, Miercuri

Timp Temperatura Precipitaţii Vânt Presiune Umiditate
00:00 +17°C° 0 mm 2 m/s 751 mmHg 70%
01:00 +17°C° 0 mm 2 m/s 751 mmHg 73%
02:00 +16°C° 0 mm 1 m/s 751 mmHg 74%
03:00 +16°C° 0 mm 1 m/s 751 mmHg 76%
04:00 +16°C° 0 mm 1 m/s 750 mmHg 78%
05:00 +16°C° 0 mm 1 m/s 750 mmHg 76%
06:00 +18°C° 0 mm 1 m/s 750 mmHg 75%
07:00 +18°C° 0 mm 1 m/s 750 mmHg 74%
08:00 +20°C° 0 mm 1 m/s 750 mmHg 66%
09:00 +22°C° 0 mm 1 m/s 750 mmHg 59%
10:00 +24°C° 0 mm 1 m/s 750 mmHg 51%
11:00 +25°C° 0 mm 1 m/s 750 mmHg 48%
12:00 +26°C° 0 mm 1 m/s 750 mmHg 45%
13:00 +28°C° 0 mm 1 m/s 749 mmHg 43%
14:00 +27°C° 0 mm 1 m/s 749 mmHg 44%
15:00 +27°C° 0 mm 1 m/s 749 mmHg 45%
16:00 +27°C° 0 mm 1 m/s 749 mmHg 46%
17:00 +25°C° 0 mm 1 m/s 749 mmHg 52%
18:00 +24°C° 0 mm 1 m/s 749 mmHg 57%
19:00 +20°C° 0 mm 0 m/s 749 mmHg 63%
20:00 +19°C° 0 mm 0 m/s 749 mmHg 65%
21:00 +21°C° 0 mm 1 m/s 749 mmHg 67%
22:00 +20°C° 0 mm 1 m/s 749 mmHg 69%
23:00 +20°C° 0 mm 1 m/s 749 mmHg 69%

24 Septembrie, Joi

Timp Temperatura Precipitaţii Vânt Presiune Umiditate
00:00 +19°C° 0 mm 1 m/s 749 mmHg 68%
01:00 +19°C° 0 mm 1 m/s 749 mmHg 68%
02:00 +17°C° 0 mm 2 m/s 749 mmHg 67%
03:00 +17°C° 0 mm 2 m/s 749 mmHg 67%
04:00 +16°C° 0 mm 2 m/s 749 mmHg 66%
05:00 +16°C° 0 mm 2 m/s 749 mmHg 66%
06:00 +16°C° 0 mm 2 m/s 749 mmHg 66%
07:00 +16°C° 0 mm 2 m/s 750 mmHg 66%
08:00 +19°C° 0 mm 3 m/s 750 mmHg 61%
09:00 +21°C° 0 mm 3 m/s 750 mmHg 56%
10:00 +23°C° 0 mm 4 m/s 750 mmHg 50%
11:00 +25°C° 0 mm 4 m/s 750 mmHg 47%
12:00 +26°C° 0 mm 4 m/s 750 mmHg 44%
13:00 +27°C° 0 mm 4 m/s 750 mmHg 41%
14:00 +26°C° 0 mm 4 m/s 750 mmHg 45%
15:00 +26°C° 0 mm 3 m/s 750 mmHg 48%
16:00 +26°C° 0 mm 3 m/s 750 mmHg 51%
17:00 +24°C° 0 mm 2 m/s 750 mmHg 57%
18:00 +21°C° 0 mm 2 m/s 751 mmHg 62%
19:00 +21°C° 0 mm 1 m/s 751 mmHg 68%
20:00 +20°C° 0 mm 1 m/s 751 mmHg 70%
21:00 +20°C° 0 mm 1 m/s 751 mmHg 72%
22:00 +19°C° 0 mm 1 m/s 751 mmHg 73%
23:00 +19°C° 0 mm 1 m/s 750 mmHg 74%

25 Septembrie, Vineri

Timp Temperatura Precipitaţii Vânt Presiune Umiditate
00:00 +18°C° 0 mm 2 m/s 750 mmHg 75%
01:00 +18°C° 0 mm 2 m/s 749 mmHg 76%
02:00 +18°C° 0 mm 2 m/s 749 mmHg 76%
03:00 +18°C° 0 mm 2 m/s 749 mmHg 76%
04:00 +18°C° 0 mm 3 m/s 748 mmHg 76%
05:00 +18°C° 0.1 mm 2 m/s 748 mmHg 78%
06:00 +17°C° 0.1 mm 2 m/s 748 mmHg 80%
07:00 +18°C° 0.1 mm 1 m/s 747 mmHg 82%
08:00 +18°C° 0 mm 2 m/s 747 mmHg 78%
09:00 +19°C° 0 mm 2 m/s 747 mmHg 75%
10:00 +20°C° 0 mm 3 m/s 747 mmHg 72%
11:00 +19°C° 0.1 mm 3 m/s 747 mmHg 74%
12:00 +18°C° 0.1 mm 4 m/s 746 mmHg 77%
13:00 +16°C° 0.1 mm 5 m/s 746 mmHg 80%
14:00 +15°C° 0.3 mm 5 m/s 746 mmHg 82%
15:00 +15°C° 0.3 mm 5 m/s 746 mmHg 85%
16:00 +14°C° 0.3 mm 5 m/s 745 mmHg 88%
17:00 +13°C° 2.3 mm 5 m/s 745 mmHg 89%
18:00 +13°C° 2.3 mm 5 m/s 745 mmHg 91%
19:00 +12°C° 2.3 mm 5 m/s 745 mmHg 92%
20:00 +12°C° 1.5 mm 5 m/s 745 mmHg 92%
21:00 +11°C° 1.5 mm 4 m/s 745 mmHg 92%
22:00 +11°C° 1.5 mm 4 m/s 745 mmHg 92%
23:00 +11°C° 1.1 mm 4 m/s 745 mmHg 93%

26 Septembrie, Sâmbătă

Timp Temperatura Precipitaţii Vânt Presiune Umiditate
00:00 +11°C° 1.1 mm 4 m/s 744 mmHg 93%
01:00 +11°C° 1.1 mm 3 m/s 744 mmHg 93%
02:00 +11°C° 0.3 mm 3 m/s 744 mmHg 93%
03:00 +11°C° 0.3 mm 3 m/s 744 mmHg 93%
04:00 +11°C° 0.3 mm 3 m/s 744 mmHg 92%
05:00 +11°C° 0.3 mm 3 m/s 744 mmHg 91%
06:00 +11°C° 0.3 mm 4 m/s 745 mmHg 91%
07:00 +11°C° 0.3 mm 4 m/s 745 mmHg 90%
08:00 +12°C° 0.1 mm 4 m/s 745 mmHg 87%
09:00 +12°C° 0.1 mm 4 m/s 746 mmHg 84%
10:00 +12°C° 0.1 mm 4 m/s 746 mmHg 81%
11:00 +13°C° 0 mm 4 m/s 746 mmHg 74%
12:00 +14°C° 0 mm 4 m/s 747 mmHg 67%
13:00 +15°C° 0 mm 4 m/s 747 mmHg 60%
14:00 +15°C° 0 mm 4 m/s 747 mmHg 59%
15:00 +16°C° 0 mm 3 m/s 747 mmHg 57%
16:00 +14°C° 0 mm 3 m/s 747 mmHg 56%
17:00 +13°C° 0 mm 3 m/s 747 mmHg 60%
18:00 +12°C° 0 mm 3 m/s 747 mmHg 63%
19:00 +11°C° 0 mm 3 m/s 747 mmHg 67%
20:00 +11°C° 0 mm 3 m/s 746 mmHg 70%
21:00 +11°C° 0 mm 3 m/s 746 mmHg 72%
22:00 +11°C° 0 mm 3 m/s 746 mmHg 74%
23:00 +10°C° 0.6 mm 3 m/s 745 mmHg 78%
Arată mai mult